Altus AFB, OK

11:47 PM CDT on March 26, 2017 (GMT -0500)
Altus Air Force Base

Weather History for KLTS - March, 2014

Change the Weather History Date:

Thursday, March 13, 2014

  Actual Average Record
Temperature  
Mean Temperature 44 °F -  
Max Temperature 68 °F 60 °F 91 °F (2002)
Min Temperature 21 °F 37 °F 21 °F (2014)
Degree Days  
Heating Degree Days 20    
Moisture  
Dew Point 19 °F    
Average Humidity 40    
Maximum Humidity 79    
Minimum Humidity 14    
Precipitation  
Precipitation 0.00 in - - ()
Sea Level Pressure  
Sea Level Pressure 30.15 in    
Wind  
Wind Speed 7 mph (SSW)    
Max Wind Speed 22 mph    
Max Gust Speed 29 mph    
Visibility 10 miles    
Events      
Averages and records for this station are not official NWS values.
T = Trace of Precipitation, MM = Missing Value Source: NWS Daily Summary

Daily Weather History Graph

Daily Weather History Graph

Search for Another Location

Airport or City:

Trip Planner

Search our weather history database for the weather conditions in past years. The results will help you decide how hot, cold, wet, or windy it might be!

Date:

Astronomy

Mar. 13, 2014 Rise Set
Actual Time 7:50 AM CDT 7:43 PM CDT
Civil Twilight 7:25 AM CDT 8:08 PM CDT
Nautical Twilight 6:56 AM CDT 8:37 PM CDT
Astronomical Twilight 6:26 AM CDT 9:07 PM CDT
Moon 5:15 PM CDT (3/13) 5:52 AM CDT (3/13)
Length of Visible Light 12h 43m
Length of Day
11h 52m
Waxing Gibbous, 91% of the Moon is Illuminated
Mar 13
Waxing Gibbous
Mar 16
Full
Mar 23
Last Quarter
Mar 30
New
Apr 7
First Quarter

Hourly Weather History & Observations

Time (CDT) Temp. Windchill Dew Point Humidity Pressure Visibility Wind Dir Wind Speed Gust Speed Precip Events Conditions
12:58 AM 30.6 °F - 18.1 °F 60% 30.27 in 10.0 mi Calm Calm - N/A   Clear
1:58 AM 31.5 °F - 20.5 °F 64% 30.27 in 10.0 mi SW 2.3 mph - N/A   Clear
2:58 AM 30.2 °F 25.4 °F 18.7 °F 62% 30.26 in 10.0 mi West 4.6 mph - N/A   Clear
3:58 AM 27.1 °F 21.8 °F 18.5 °F 70% 30.26 in 10.0 mi WNW 4.6 mph - N/A   Clear
4:58 AM 25.7 °F - 17.1 °F 70% 30.26 in 10.0 mi West 2.3 mph - N/A   Clear
5:58 AM 24.6 °F 20.3 °F 17.8 °F 75% 30.26 in 10.0 mi WSW 3.5 mph - N/A   Clear
6:58 AM 21.7 °F 15.5 °F 15.8 °F 78% 30.26 in 10.0 mi West 4.6 mph - N/A   Clear
7:58 AM 22.3 °F - 16.7 °F 79% 30.28 in 10.0 mi SW 1.2 mph - N/A   Clear
8:58 AM 28.9 °F - 21.6 °F 74% 30.28 in 10.0 mi WNW 1.2 mph - N/A   Clear
9:58 AM 40.3 °F 38.2 °F 18.5 °F 42% 30.29 in 10.0 mi WSW 3.5 mph - N/A   Clear
10:58 AM 50.9 °F - 19.9 °F 30% 30.28 in 10.0 mi WSW 6.9 mph - N/A   Clear
11:58 AM 60.6 °F - 21.0 °F 22% 30.24 in 10.0 mi SW 10.4 mph - N/A   Clear
12:58 PM 64.4 °F - 18.7 °F 17% 30.21 in 10.0 mi SW 12.7 mph - N/A   Clear
1:05 PM 64.4 °F - 19.4 °F 18% 30.19 in 10.0 mi South 12.7 mph 20.7 mph N/A   Clear
1:29 PM 66.2 °F - 19.4 °F 17% 30.17 in 10.0 mi South 13.8 mph 20.7 mph N/A   Clear
1:58 PM 66.2 °F - 18.9 °F 16% 30.16 in 10.0 mi SSW 17.3 mph - N/A   Clear
2:58 PM 67.1 °F - 16.0 °F 14% 30.12 in 10.0 mi South 21.9 mph 28.8 mph N/A   Clear
3:58 PM 66.0 °F - 17.4 °F 15% 30.08 in 10.0 mi South 20.7 mph 25.3 mph N/A   Clear
4:58 PM 68.7 °F - 18.7 °F 15% 30.04 in 10.0 mi SSW 16.1 mph - N/A   Clear
5:58 PM 68.4 °F - 17.8 °F 14% 30.01 in 10.0 mi South 18.4 mph - N/A   Clear
6:58 PM 65.3 °F - 18.3 °F 16% 29.99 in 10.0 mi South 19.6 mph - N/A   Clear
7:58 PM 59.0 °F - 19.4 °F 22% 29.98 in 10.0 mi South 11.5 mph - N/A   Partly Cloudy
8:58 PM 49.6 °F - 18.1 °F 29% 29.98 in 10.0 mi South 10.4 mph - N/A   Clear
9:58 PM 44.6 °F 38.8 °F 17.4 °F 34% 29.96 in 10.0 mi South 11.5 mph - N/A   Clear
10:58 PM 42.1 °F 37.7 °F 18.3 °F 39% 29.96 in 10.0 mi SSE 6.9 mph - N/A   Partly Cloudy
11:58 PM 43.2 °F 38.4 °F 19.6 °F 39% 29.95 in 10.0 mi SSE 8.1 mph - N/A   Clear